Regional Weather Roundup
Issued by NWS Jackson, KY

Home | Current Version | Previous Version | Text Only | Print | Product List | Glossary Off
Versions: 1 2 3 4 5 6 7 8 9 10 11 12 13 14 15 16 17 18 19 20 21 22 23 24 25 26 27 28 29 30 31 32 33 34 35 36 37 38 39 40 41 42 43 44 45 46 47 48 49 50

593
ASUS43 KJKL 310010
RWRJKL

EAST KENTUCKY HOURLY WEATHER ROUNDUP
NATIONAL WEATHER SERVICE JACKSON KY
800 PM EDT SAT JUL 30 2016

NOTE: "FAIR" INDICATES FEW OR NO CLOUDS BELOW 12,000 FEET WITH
NO SIGNIFICANT WEATHER AND/OR OBSTRUCTIONS TO VISIBILITY.

* THESE REPORTS ARE NOT UNDER NWS QUALITY CONTROL AND MAY NOT
  REPORT WEATHER SUCH AS PRECIPITATION AND FOG.

KYZ079-080-083-085-087-088-110-112-115-119-120-310100
...EASTERN KENTUCKY...

CITY           SKY/WX    TMP DP  RH WIND       PRES   REMARKS
JACKSON        MOCLDY    78  70  76 CALM      29.99S
6HR MIN TEMP:  77; 6HR MAX TEMP:  87; 6HR PCP: TRACE;

LONDON         CLEAR     83  69  62 W8        29.99S
6HR MIN TEMP:  81; 6HR MAX TEMP:  86;

SOMERSET*      MOCLDY    81  68  65 W3        29.99S
MONTICELLO*    CLEAR    N/A N/A N/A W13       30.00S
WILLIAMSBURG*  CLEAR     82  72  69 CALM      29.99S
MIDDLESBORO*   MOCLDY    77  73  86 CALM      30.00R
6HR MIN TEMP:  77; 6HR MAX TEMP:  88;

HARLAN APT*    MOCLDY    81  70  69 CALM      30.01R
PIKE CO APT*     N/A     78  73  84 N3        30.00R
BIG SANDY APT* CLEAR     79  74  86 CALM      29.98S
6HR MIN TEMP:  79; 6HR MAX TEMP:  86;

MOREHEAD APT*  MOCLDY    73  70  88 NW6       30.00R
ASHLAND*       PTCLDY    81  73  78 CALM      29.93S
$$

KYZ035-036-041-042-044-050-067-078-099-310100
...CENTRAL KENTUCKY...

CITY           SKY/WX    TMP DP  RH WIND       PRES   REMARKS
MT STERLING*   MOCLDY    75  72  88 NW3       29.99F
FLEMING/MASON* PTCLDY    76  69  78 CALM      29.97F
DANVILLE*      PTCLDY    77  70  78 NW3       29.99S
LEXINGTON      PTCLDY    77  68  73 W3        29.97F
6HR MIN TEMP:  74; 6HR MAX TEMP:  86; 6HR PCP: TRACE;

FRANKFORT      MOCLDY    77  70  79 CALM      29.95F
6HR MIN TEMP:  71; 6HR MAX TEMP:  86; 6HR PCP:  0.59;

LOUISVILLE     CLOUDY    80  69  69 NW7       29.95F
6HR MIN TEMP:  73; 6HR MAX TEMP:  87; 6HR PCP:  0.39;

LEBANON*       HVY RAIN  73  72  94 NW14      29.99R
GLASGOW*       PTCLDY    79  72  79 CALM      29.96S
BOWLING GREEN  MOCLDY    82  72  71 N7        29.96S
6HR MIN TEMP:  81; 6HR MAX TEMP:  88;

$$

KYZ091>093-OHZ055-061-077-WVZ005-015-034-035-042-310100
...SOUTHERN OHIO/WEST VIRGINIA...

CITY           SKY/WX    TMP DP  RH WIND       PRES   REMARKS
COVINGTON      MOCLDY    80  69  69 SW3       29.95F
COLUMBUS       MOCLDY    82  66  58 NW3       29.91S
DAYTON         PTCLDY    80  67  64 W6        29.95S
WILMINGTON     CLEAR     82  68  62 SW8       29.94F
HUNTINGTON       N/A     83  70  64 CALM      29.95S
CHARLESTON       N/A     81  70  69 CALM      29.97S
PINEVILLE*     MOCLDY    74  65  73 MISG      30.08R
BECKLEY          N/A     77  64  64 W3        30.06S
BLUEFIELD        N/A     75  66  73 W3        30.09S
LOGAN CO APT*    N/A     75  72  88 CALM      30.01R
$$

VAZ002-007-008-TNZ017-027-036-066-071-310100
...SOUTHWEST VIRGINIA/EAST TENNESSEE...

CITY           SKY/WX    TMP DP  RH WIND       PRES   REMARKS
WISE*          MOCLDY    77  64  65 CALM      30.09S
JONESVILLE*      N/A     81  73  78 CALM      30.03R
ABINGDON*        N/A     80  68  66 CALM      30.06R
BRISTOL        PTCLDY    83  68  60 SW5       30.01R
MORRISTOWN*    PTCLDY    79  73  83 NW3       29.99R
SEVIERVILLE*   CLEAR     86  64  48 W6        29.97R
KNOXVILLE      MOCLDY    85  70  60 SW9       29.97R
OAK RIDGE      MOCLDY    84  67  56 VRB3      29.99R
CROSSVILLE     CLOUDY    79  70  74 W7        30.05R
NASHVILLE      PTCLDY    85  69  58 W5        29.96S
$$

...KEY TO REMARKS...
VSB - VISIBILITY IN MILES
WCI - WIND CHILL INDEX
HX  - HEAT INDEX

$$




USA.gov is the U.S. government's official web portal to all federal, state and local government web resources and services.